sat.trackr.live / text

‹ back to catalog

STARLINK-11157 [DTC]

NORAD 60122 · 2024-118K

PAYLOAD ACTIVE UNKNOWN

§ Identity

Operator
Country
US
Launch date
2024-06-24
Launch site
AFWTR
Launch vehicle
Mass (kg)
RCS (m²)

Purposes: comms

External: N2YO · Heavens-Above · Gunter

§ Orbital elements

Epoch: 2026-09-21T17:06:24.957504Z

Period
91.74 min
Inclination
53.1587°
Eccentricity
0.0000445
Mean motion
15.69717753 rev/d
Perigee alt
359.4 km
Apogee alt
360.0 km
Semi-major
6,737.8 km
B*
-1.9522e-5
RAAN
334.7391°
Arg perigee
86.6867°
Mean anomaly
273.4202°
Rev number
12,878

§ Raw data

STARLINK-11157 [DTC]1 60122U 24118K   26264.71278886 -.00002952  00000+0 -19522-4 0  99962 60122  53.1587 334.7391 0000445  86.6867 273.4202 15.69717753128783

JSON: /api/v1/satellites/60122 · /tle

For live sub-satellite position, see the globe view (requires WebGL).

§ Visibility from observer

Set your observer location to see the next 7 days of passes ≥ 10°. The values pass through the URL so the page stays shareable.

No JS? Fill the form by hand. The geolocation button needs JavaScript.